Madison, SD

2:36 AM CDT on August 30, 2016 (GMT -0500)
Madison Municipal

Weather History for KMDS - November, 2013

Change the Weather History Date:

Tuesday, November 12, 2013

  Actual Average Record
Temperature  
Mean Temperature 16 °F -  
Max Temperature 32 °F 38 °F 57 °F (2011)
Min Temperature 1 °F 20 °F 1 °F (2013)
Degree Days  
Heating Degree Days 48    
Moisture  
Dew Point 10 °F    
Average Humidity 78    
Maximum Humidity 100    
Minimum Humidity 48    
Precipitation  
Precipitation 0.00 in - - ()
Sea Level Pressure  
Sea Level Pressure 30.62 in    
Wind  
Wind Speed 8 mph (SW)    
Max Wind Speed 17 mph    
Max Gust Speed 20 mph    
Visibility 10 miles    
Events      
Averages and records for this station are not official NWS values.
T = Trace of Precipitation, MM = Missing Value Source: NWS Daily Summary

Daily Weather History Graph

Daily Weather History Graph

Search for Another Location

Airport or City:

Trip Planner

Search our weather history database for the weather conditions in past years. The results will help you decide how hot, cold, wet, or windy it might be!

Date:

Astronomy

Nov. 12, 2013 Rise Set
Actual Time 7:19 AM CST 5:04 PM CST
Civil Twilight 6:48 AM CST 5:35 PM CST
Nautical Twilight 6:14 AM CST 6:10 PM CST
Astronomical Twilight 5:40 AM CST 6:44 PM CST
Moon 2:28 PM CST (11/12) 2:00 AM CST (11/12)
Length of Visible Light 10h 46m
Length of Day
9h 45m
Waxing Gibbous, 76% of the Moon is Illuminated
Nov 12
Waxing Gibbous
Nov 17
Full
Nov 25
Last Quarter
Dec 2
New
Dec 9
First Quarter

Hourly Weather History & Observations

Time (CST) Temp. Windchill Dew Point Humidity Pressure Visibility Wind Dir Wind Speed Gust Speed Precip Events Conditions
12:10 AM 5.0 °F -4.1 °F 5.0 °F 100% 30.75 in 10.0 mi NNW 4.6 mph - N/A   Clear
12:30 AM 3.2 °F -7.8 °F 3.2 °F 100% 30.75 in 10.0 mi NW 5.8 mph - N/A   Clear
12:50 AM 5.0 °F -4.1 °F 5.0 °F 100% 30.75 in 10.0 mi WNW 4.6 mph - N/A   Clear
1:10 AM 5.0 °F -4.1 °F 5.0 °F 100% 30.74 in 10.0 mi West 4.6 mph - N/A   Clear
1:30 AM 3.2 °F -6.2 °F 3.2 °F 100% 30.74 in 10.0 mi WNW 4.6 mph - N/A   Clear
1:50 AM 5.0 °F -5.6 °F 5.0 °F 100% 30.73 in 10.0 mi WNW 5.8 mph - N/A   Clear
2:10 AM 3.2 °F -4.2 °F 3.2 °F 100% 30.74 in 10.0 mi West 3.5 mph - N/A   Clear
2:30 AM 3.2 °F -6.2 °F 3.2 °F 100% 30.74 in 10.0 mi WNW 4.6 mph - N/A   Clear
2:50 AM 5.0 °F -5.6 °F 5.0 °F 100% 30.74 in 10.0 mi WNW 5.8 mph - N/A   Clear
3:10 AM 5.0 °F -5.6 °F 5.0 °F 100% 30.74 in 10.0 mi WNW 5.8 mph - N/A   Clear
3:30 AM 1.4 °F -9.9 °F 1.4 °F 100% 30.74 in 10.0 mi WNW 5.8 mph - N/A   Clear
3:50 AM 5.0 °F -5.6 °F 5.0 °F 100% 30.74 in 10.0 mi WNW 5.8 mph - N/A   Clear
4:10 AM 5.0 °F -5.6 °F 3.2 °F 92% 30.74 in 10.0 mi WNW 5.8 mph - N/A   Clear
4:30 AM 5.0 °F -4.1 °F 3.2 °F 92% 30.74 in 10.0 mi West 4.6 mph - N/A   Clear
4:50 AM 3.2 °F -6.2 °F 3.2 °F 100% 30.75 in 10.0 mi West 4.6 mph - N/A   Clear
5:10 AM 5.0 °F -2.1 °F 5.0 °F 100% 30.75 in 10.0 mi West 3.5 mph - N/A   Clear
5:30 AM 5.0 °F -4.1 °F 5.0 °F 100% 30.75 in 10.0 mi West 4.6 mph - N/A   Clear
5:50 AM 3.2 °F -6.2 °F 3.2 °F 100% 30.75 in 10.0 mi SW 4.6 mph - N/A   Clear
6:10 AM 3.2 °F -4.2 °F 3.2 °F 100% 30.75 in 10.0 mi WSW 3.5 mph - N/A   Clear
6:30 AM 3.2 °F -6.2 °F 3.2 °F 100% 30.74 in 10.0 mi WSW 4.6 mph - N/A   Clear
6:50 AM 3.2 °F -7.8 °F 3.2 °F 100% 30.74 in 10.0 mi WSW 5.8 mph - N/A   Clear
7:10 AM 3.2 °F -6.2 °F 3.2 °F 100% 30.74 in 10.0 mi WSW 4.6 mph - N/A   Clear
7:30 AM 5.0 °F -4.1 °F 5.0 °F 100% 30.75 in 10.0 mi WSW 4.6 mph - N/A   Clear
7:50 AM 5.0 °F -5.6 °F 5.0 °F 100% 30.75 in 10.0 mi WSW 5.8 mph - N/A   Clear
8:10 AM 8.6 °F -4.7 °F 8.6 °F 100% 30.75 in 10.0 mi WSW 9.2 mph - N/A   Clear
8:30 AM 10.4 °F -2.4 °F 8.6 °F 92% 30.75 in 10.0 mi WSW 9.2 mph - N/A   Clear
8:50 AM 12.2 °F -0.2 °F 10.4 °F 92% 30.74 in 10.0 mi SW 9.2 mph - N/A   Clear
9:10 AM 14.0 °F 0.5 °F 10.4 °F 86% 30.74 in 10.0 mi SW 11.5 mph - N/A   Clear
9:30 AM 15.8 °F 2.7 °F 8.6 °F 73% 30.74 in 10.0 mi SW 11.5 mph - N/A   Clear
9:50 AM 15.8 °F 2.1 °F 8.6 °F 73% 30.73 in 10.0 mi SW 12.7 mph - N/A   Clear
10:10 AM 17.6 °F 5.0 °F 10.4 °F 73% 30.73 in 10.0 mi SW 11.5 mph - N/A   Clear
10:30 AM 17.6 °F 4.3 °F 10.4 °F 73% 30.72 in 10.0 mi SW 12.7 mph - N/A   Clear
10:50 AM 19.4 °F 6.6 °F 10.4 °F 68% 30.71 in 10.0 mi SW 12.7 mph - N/A   Clear
11:10 AM 19.4 °F 6.0 °F 10.4 °F 68% 30.70 in 10.0 mi SW 13.8 mph - N/A   Clear
11:30 AM 21.2 °F 8.3 °F 10.4 °F 63% 30.68 in 10.0 mi SW 13.8 mph - N/A   Clear
11:50 AM 23.0 °F 11.1 °F 10.4 °F 59% 30.67 in 10.0 mi SW 12.7 mph - N/A   Clear
12:10 PM 24.8 °F 13.4 °F 10.4 °F 54% 30.66 in 10.0 mi SSW 12.7 mph - N/A   Clear
12:30 PM 24.8 °F 12.9 °F 10.4 °F 54% 30.64 in 10.0 mi SSW 13.8 mph - N/A   Clear
12:50 PM 26.6 °F 15.2 °F 12.2 °F 55% 30.63 in 10.0 mi SSW 13.8 mph - N/A   Clear
1:10 PM 26.6 °F 14.7 °F 14.0 °F 59% 30.62 in 10.0 mi SSW 15.0 mph - N/A   Clear
1:30 PM 26.6 °F 13.8 °F 12.2 °F 55% 30.60 in 10.0 mi SSW 17.3 mph - N/A   Clear
1:50 PM 28.4 °F 17.0 °F 12.2 °F 51% 30.59 in 10.0 mi SSW 15.0 mph - N/A   Clear
2:10 PM 28.4 °F 17.5 °F 14.0 °F 55% 30.57 in 10.0 mi SSW 13.8 mph - N/A   Clear
2:30 PM 28.4 °F 17.5 °F 14.0 °F 55% 30.56 in 10.0 mi SSW 13.8 mph - N/A   Clear
2:50 PM 30.2 °F 19.8 °F 14.0 °F 51% 30.55 in 10.0 mi SSW 13.8 mph 19.6 mph N/A   Clear
3:10 PM 30.2 °F 19.3 °F 14.0 °F 51% 30.54 in 10.0 mi SSW 15.0 mph - N/A   Clear
3:30 PM 32.0 °F 21.6 °F 14.0 °F 48% 30.53 in 10.0 mi SSW 15.0 mph 19.6 mph N/A   Clear
3:50 PM 32.0 °F 22.1 °F 14.0 °F 48% 30.53 in 10.0 mi SSW 13.8 mph - N/A   Clear
4:10 PM 30.2 °F 19.3 °F 14.0 °F 51% 30.53 in 10.0 mi SSW 15.0 mph 18.4 mph N/A   Clear
4:30 PM 30.2 °F 20.8 °F 14.0 °F 51% 30.54 in 10.0 mi SSW 11.5 mph - N/A   Clear
4:50 PM 28.4 °F 19.7 °F 14.0 °F 55% 30.53 in 10.0 mi South 9.2 mph - N/A   Clear
5:10 PM 26.6 °F 18.2 °F 15.8 °F 64% 30.53 in 10.0 mi South 8.1 mph - N/A   Clear
5:30 PM 24.8 °F 16.1 °F 15.8 °F 69% 30.52 in 10.0 mi South 8.1 mph - N/A   Clear
5:50 PM 24.8 °F 16.1 °F 14.0 °F 64% 30.52 in 10.0 mi South 8.1 mph - N/A   Clear
6:10 PM 21.2 °F 10.1 °F 15.8 °F 80% 30.51 in 10.0 mi South 10.4 mph - N/A   Clear
6:30 PM 23.0 °F 12.4 °F 15.8 °F 74% 30.49 in 10.0 mi South 10.4 mph - N/A   Clear
6:50 PM 23.0 °F 12.4 °F 14.0 °F 68% 30.49 in 10.0 mi South 10.4 mph - N/A   Clear
7:10 PM 23.0 °F 12.4 °F 15.8 °F 74% 30.48 in 10.0 mi South 10.4 mph - N/A   Clear
7:30 PM 23.0 °F 13.1 °F 15.8 °F 74% 30.48 in 10.0 mi South 9.2 mph - N/A   Clear
7:50 PM 23.0 °F 11.1 °F 15.8 °F 74% 30.46 in 10.0 mi South 12.7 mph - N/A   Clear
8:10 PM 23.0 °F 11.1 °F 14.0 °F 68% 30.44 in 10.0 mi South 12.7 mph - N/A   Clear
8:30 PM 23.0 °F 10.1 °F 14.0 °F 68% 30.43 in 10.0 mi South 15.0 mph - N/A   Clear
8:50 PM 23.0 °F 11.1 °F 14.0 °F 68% 30.42 in 10.0 mi South 12.7 mph - N/A   Clear
9:10 PM 24.8 °F 12.9 °F 15.8 °F 69% 30.41 in 10.0 mi South 13.8 mph - N/A   Clear
9:30 PM 24.8 °F 13.4 °F 15.8 °F 69% 30.41 in 10.0 mi South 12.7 mph - N/A   Clear
9:50 PM 24.8 °F 13.4 °F 15.8 °F 69% 30.39 in 10.0 mi South 12.7 mph - N/A   Clear
10:10 PM 24.8 °F 12.9 °F 15.8 °F 69% 30.39 in 10.0 mi SSW 13.8 mph - N/A   Clear
10:30 PM 24.8 °F 13.4 °F 17.6 °F 74% 30.38 in 10.0 mi South 12.7 mph - N/A   Clear
10:50 PM 24.8 °F 14.6 °F 17.6 °F 74% 30.38 in 10.0 mi South 10.4 mph - N/A   Clear
11:10 PM 24.8 °F 14.6 °F 17.6 °F 74% 30.37 in 10.0 mi South 10.4 mph - N/A   Clear
11:30 PM 24.8 °F 14.0 °F 17.6 °F 74% 30.35 in 10.0 mi South 11.5 mph - N/A   Clear
11:50 PM 24.8 °F 15.3 °F 17.6 °F 74% 30.35 in 10.0 mi South 9.2 mph - N/A   Clear